Location: Nakusp
(50.2330°N, 117.8000°W)
Time: 19:57:49
(UTC-08:00)

Cosmos 1939 Rocket - Visible Passes

Search period start: 05 March 2015 00:00
Search period end: 15 March 2015 01:00
Orbit: 537 x 593 km, 97.6° (Epoch: 05 March)

Date Brightness Start Highest point End Pass type
(mag) Time Alt. Az. Time Alt. Az. Time Alt. Az.
05 Mar 4.8 18:46:30 13° ENE 18:46:58 13° ENE 18:49:04 10° NNE visible
05 Mar 3.6 20:22:31 49° NNW 20:22:31 49° NNW 20:25:38 10° NNW visible
06 Mar 4.8 18:46:37 13° ENE 18:47:14 14° ENE 18:49:21 10° NNE visible
06 Mar 3.5 20:22:38 53° NNW 20:22:38 53° NNW 20:25:53 10° NNW visible
07 Mar 4.8 18:46:44 13° ENE 18:47:28 14° ENE 18:49:37 10° NNE visible
07 Mar 3.4 20:22:44 58° NNW 20:22:44 58° NNW 20:26:09 10° NNW visible
08 Mar 4.8 19:46:51 13° ENE 19:47:43 14° ENE 19:49:53 10° NNE visible
08 Mar 3.3 21:22:51 62° NNW 21:22:51 62° NNW 21:26:24 10° NNW visible
09 Mar 4.8 19:46:57 13° ENE 19:47:57 14° ENE 19:50:09 10° NNE visible
09 Mar 3.2 21:22:57 67° NNW 21:22:57 67° NNW 21:26:38 10° NNW visible
10 Mar 4.8 19:47:02 13° ENE 19:48:10 14° ENE 19:50:24 10° NNE visible
10 Mar 3.1 21:23:03 72° NW 21:23:03 72° NW 21:26:52 10° NNW visible
11 Mar 4.8 19:47:08 12° ENE 19:48:24 14° ENE 19:50:39 10° NNE visible
11 Mar 3.0 21:23:09 76° NW 21:23:09 76° NW 21:27:06 10° NNW visible
12 Mar 4.8 19:47:14 12° E 19:48:37 14° ENE 19:50:53 10° NNE visible
12 Mar 2.9 21:23:14 80° WNW 21:23:14 80° WNW 21:27:20 10° NNW visible
13 Mar 4.8 19:47:19 12° E 19:48:50 14° ENE 19:51:07 10° NNE visible
13 Mar 2.9 21:23:20 82° WSW 21:23:20 82° WSW 21:27:33 10° NNW visible
14 Mar 4.8 19:47:24 12° E 19:49:02 14° ENE 19:51:21 10° NNE visible
14 Mar 2.9 21:23:25 80° SW 21:23:32 81° WSW 21:27:46 10° NNW visible
